SAS86N EKCH-LIRQ

Flight info

Callsign SAS86N
Flight time N/A
Altitude 37000
Route NEXEN T503 GIMRU DCT MICOS DCT NEBUN DCT EMBOX DCT EXITI DCT BERAS DCT LIKDA DCT BAKOR DCT GOXIN Q58 BIKTU
Aircraft A319/M-SDE3FGIJ1RWXY/LB1

Departure

Time N/A
Airport Copenhagen Kastrup Airport (EKCH)

Arrival

Time 2026-04-27 14:51
Airport Florence Airport, Peretola (LIRQ)
Time Latitude Longitude Altitude Speed Heading
2026-04-27 14:43 43.52236 10.97002 7636 ft 235 kts 228°
2026-04-27 14:44 43.50748 10.94725 7315 ft 236 kts 228°
2026-04-27 14:44 43.49267 10.92414 6961 ft 236 kts 235°
2026-04-27 14:44 43.48762 10.89533 6560 ft 232 kts 284°
2026-04-27 14:44 43.49942 10.87054 6219 ft 230 kts 318°
2026-04-27 14:45 43.51631 10.85109 5882 ft 233 kts 320°
2026-04-27 14:45 43.53321 10.83145 5529 ft 232 kts 322°
2026-04-27 14:45 43.55331 10.82207 5141 ft 231 kts
2026-04-27 14:45 43.57167 10.83646 4813 ft 229 kts 47°
2026-04-27 14:46 43.58580 10.85939 4480 ft 228 kts 50°
2026-04-27 14:46 43.59970 10.88194 4184 ft 224 kts 47°
2026-04-27 14:46 43.61424 10.90313 4041 ft 224 kts 46°
2026-04-27 14:46 43.62876 10.92437 3813 ft 220 kts 47°
2026-04-27 14:47 43.64263 10.94536 3661 ft 219 kts 48°
2026-04-27 14:47 43.65629 10.96648 3482 ft 215 kts 48°
2026-04-27 14:47 43.66962 10.98727 3219 ft 210 kts 48°
2026-04-27 14:47 43.68250 11.00736 2991 ft 202 kts 48°
2026-04-27 14:48 43.69472 11.02640 2967 ft 194 kts 48°
2026-04-27 14:48 43.71822 11.06291 2587 ft 176 kts 48°
2026-04-27 14:48 43.72895 11.07955 2311 ft 171 kts 49°
2026-04-27 14:49 43.73984 11.09642 2007 ft 171 kts 49°
2026-04-27 14:49 43.75058 11.11304 1710 ft 171 kts 49°
2026-04-27 14:49 43.76112 11.12936 1423 ft 168 kts 49°
2026-04-27 14:49 43.77065 11.14412 1143 ft 153 kts 49°
2026-04-27 14:50 43.77771 11.15502 902 ft 144 kts 47°
2026-04-27 14:50 43.78420 11.16502 693 ft 139 kts 49°
2026-04-27 14:50 43.79061 11.17516 527 ft 138 kts 46°
2026-04-27 14:50 43.79702 11.18491 365 ft 138 kts 47°
2026-04-27 14:51 43.80347 11.19486 215 ft 139 kts 47°
2026-04-27 14:51 43.80977 11.20468 151 ft 128 kts 46°
2026-04-27 14:51 43.81429 11.21162 158 ft 55 kts 49°
2026-04-27 14:51 43.81509 11.21323 159 ft 9 kts 67°
2026-04-27 14:52 43.81511 11.21278 159 ft 10 kts 210°
2026-04-27 14:52 43.81457 11.21205 158 ft 11 kts 228°
2026-04-27 14:52 43.81398 11.21114 157 ft 13 kts 228°
2026-04-27 14:52 43.81334 11.21015 156 ft 14 kts 229°
2026-04-27 14:53 43.81265 11.20908 155 ft 15 kts 227°
2026-04-27 14:53 43.81190 11.20793 154 ft 16 kts 229°
2026-04-27 14:53 43.81111 11.20667 152 ft 17 kts 230°
2026-04-27 14:53 43.81025 11.20538 151 ft 18 kts 227°
2026-04-27 14:54 43.80938 11.20404 149 ft 19 kts 229°
2026-04-27 14:54 43.80849 11.20265 148 ft 19 kts 228°
2026-04-27 14:54 43.80758 11.20125 147 ft 19 kts 228°
2026-04-27 14:54 43.80685 11.20035 146 ft 11 kts 202°
2026-04-27 14:55 43.80606 11.20008 146 ft 12 kts 194°
2026-04-27 14:55 43.80519 11.19979 145 ft 10 kts 193°
2026-04-27 14:55 43.80465 11.19960 145 ft 5 kts 192°
2026-04-27 14:55 43.80442 11.19969 145 ft 4 kts 111°
2026-04-27 14:56 43.80453 11.20002 145 ft 3 kts 47°
2026-04-27 14:56 43.80455 11.20029 145 ft 2 kts 114°
2026-04-27 14:56 43.80440 11.20040 145 ft 3 kts 164°
2026-04-27 14:56 43.80428 11.20066 145 ft 3 kts 101°
2026-04-27 14:57 43.80428 11.20091 145 ft 1 kts 90°
2026-04-27 14:57 43.80428 11.20108 146 ft 0 kts 90°